This demonstration page uses our WeatherBlox Daily Observations layout. Learn more.

Left ArrowRight Arrow

Hourly Observations for March 2, 2015

Temp ( °F °C ) Dew Point ( °F °C ) Humidity (%) Winds ( mph kmh ) Pressure ( in mb ) Visibility ( mi km ) Precip ( " mm )
12:53 am 00:53 Clear 43 6.1 34 1.1 71 71 Calm 29.82 1010 10 16 0.00 0.00
1:53 am 01:53 Clear 43 6.1 35 1.7 74 74 Calm 29.80 1009 10 16 0.00 0.00
2:53 am 02:53 Clear 41 5 34 1.1 76 76 Calm 29.78 1009 10 16 0.00 0.00
3:53 am 03:53 Mostly Cloudy 42 5.6 35 1.7 76 76 Calm 29.77 1008 10 16 0.00 0.00
4:53 am 04:53 Mostly Cloudy 42 5.6 35 1.7 76 76 N 3 6 29.77 1008 10 16 0.00 0.00
5:53 am 05:53 Mostly Cloudy 43 6.1 35 1.7 74 74 Calm 29.77 1008 10 16 0.00 0.00
6:53 am 06:53 Cloudy 44 6.7 36 2.2 73 73 NW 3 6 29.78 1008 10 16 0.00 0.00
7:53 am 07:53 Cloudy 46 7.8 37 2.8 71 71 Calm 29.79 1009 10 16 0.00 0.00
8:53 am 08:53 Cloudy 48 8.9 37 2.8 66 66 N 6 9 29.81 1010 10 16 0.00 0.00
9:53 am 09:53 Cloudy 52 11.1 38 3.3 59 59 NNE 3 6 29.83 1010 10 16 0.00 0.00
10:53 am 10:53 Cloudy with Light Rain 52 11.1 42 5.6 69 69 W 5 7 29.85 1011 10 16 0.00 0.03
11:53 am 11:53 Cloudy 53 11.7 43 6.1 69 69 Calm 29.85 1011 10 16 0.00 0.03
12:53 pm 12:53 Cloudy 55 12.8 41 5 59 59 W 5 7 29.85 1011 10 16 0.00 0.00
1:53 pm 13:53 Mostly Sunny 59 15 40 4.4 49 49 Calm 29.83 1010 10 16 0.00 0.00
2:53 pm 14:53 Sunny 60 15.6 38 3.3 44 44 SE 5 7 29.83 1010 10 16 0.00 0.00
3:53 pm 15:53 Sunny 60 15.6 39 3.9 46 46 VRB 3 6 29.83 1010 10 16 0.00 0.00
4:53 pm 16:53 Sunny 60 15.6 40 4.4 47 47 SE 8 13 29.83 1010 10 16 0.00 0.00
5:53 pm 17:53 Sunny 55 12.8 41 5 59 59 SE 5 7 29.85 1011 10 16 0.00 0.00
6:53 pm 18:53 Partly Cloudy 52 11.1 40 4.4 64 64 Calm 29.87 1012 10 16 0.00 0.00
7:53 pm 19:53 Partly Cloudy 49 9.4 39 3.9 69 69 Calm 29.89 1012 10 16 0.00 0.00
8:53 pm 20:53 Clear 45 7.2 39 3.9 80 80 Calm 29.92 1013 10 16 0.00 0.00
9:53 pm 21:53 Clear 46 7.8 39 3.9 77 77 Calm 29.95 1014 10 16 0.00 0.00
10:53 pm 22:53 Clear 42 5.6 38 3.3 85 85 Calm 29.98 1015 10 16 0.00 0.00
11:53 pm 23:53 Clear 41 5 37 2.8 86 86 Calm 29.99 1016 10 16 0.00 0.00

Powered by AerisWeather